FW4751 Weather Reports


Display with metric or nautical units.
time (UTC)temp
F
wind
direction
speed
MPH
gust
MPH
rain 1hr
in
rain 24hr
in
rain mn
in
humidity
%
barometer
mb
20260904190004 71 45 1.0 5.0 0.00 0.02 0.01 61 1014.7
20260904185504 70 45 2.0 5.0 0.00 0.02 0.01 61 1014.8
20260904185004 70 45 2.0 5.0 0.00 0.02 0.01 63 1014.7
20260904184504 70 23 2.0 5.0 0.00 0.02 0.01 61 1014.8
20260904184004 70 45 2.0 5.0 0.00 0.02 0.01 61 1014.9
20260904183509 70 23 2.0 6.0 0.00 0.02 0.01 62 1014.8
20260904183009 70 45 1.0 4.0 0.00 0.02 0.01 61 1014.8
20260904182504 70 45 1.0 4.0 0.00 0.02 0.01 62 1014.9
20260904182004 70 45 2.0 4.0 0.00 0.02 0.01 60 1015.0
20260904181524 71 45 1.0 5.0 0.00 0.02 0.01 61 1015.0
20260904181004 71 45 1.0 4.0 0.00 0.02 0.01 61 1015.0
20260904180504 71 45 2.0 5.0 0.00 0.02 0.01 61 1015.0
20260904180004 71 45 2.0 4.0 0.00 0.02 0.01 61 1015.1
20260904175524 71 113 2.0 5.0 0.00 0.02 0.01 61 1015.0
20260904175029 71 135 2.0 5.0 0.00 0.02 0.01 61 1015.1
20260904174504 71 113 1.0 3.0 0.00 0.02 0.01 62 1015.2
20260904174004 71 113 2.0 6.0 0.00 0.02 0.01 62 1015.2
20260904173504 71 113 2.0 6.0 0.00 0.02 0.01 62 1015.1
20260904173024 71 135 1.0 4.0 0.00 0.02 0.01 63 1015.0
20260904172509 70 113 1.0 4.0 0.00 0.02 0.01 64 1015.0
20260904172005 70 135 1.0 4.0 0.00 0.02 0.01 64 1015.0
20260904171544 69 135 1.0 3.0 0.00 0.02 0.01 66 1015.0
20260904171004 69 135 2.0 5.0 0.00 0.02 0.01 67 1014.9
20260904170503 68 45 1.0 3.0 0.00 0.02 0.01 68 1015.0
20260904170004 68 135 1.0 4.0 0.00 0.02 0.01 69 1014.9
20260904165508 68 135 1.0 4.0 0.00 0.02 0.01 71 1014.9
20260904165024 67 113 1.0 3.0 0.00 0.02 0.01 71 1014.8
20260904164504 66 135 1.0 2.0 0.00 0.02 0.01 69 1014.9
20260904164004 66 0.0 1.0 0.00 0.02 0.01 70 1014.7
20260904163504 66 23 1.0 2.0 0.00 0.02 0.01 70 1014.7
20260904163024 66 45 1.0 2.0 0.00 0.02 0.01 72 1014.6
20260904162524 65 315 1.0 4.0 0.00 0.02 0.01 74 1014.6
20260904162004 65 315 1.0 3.0 0.00 0.02 0.01 76 1014.5
20260904161508 65 315 1.0 2.0 0.00 0.02 0.01 77 1014.5
20260904161008 64 45 1.0 2.0 0.00 0.02 0.01 78 1014.4
20260904160509 64 315 1.0 3.0 0.00 0.02 0.01 80 1014.6
20260904160023 64 45 1.0 2.0 0.00 0.02 0.01 81 1014.5
20260904155509 63 23 1.0 2.0 0.00 0.02 0.01 83 1014.5
20260904155004 63 270 1.0 2.0 0.00 0.02 0.01 84 1014.6
20260904154503 63 0.0 1.0 0.00 0.02 0.01 86 1014.4
20260904154009 63 0.0 1.0 0.00 0.02 0.01 87 1014.4
20260904153508 63 0.0 1.0 0.00 0.02 0.01 88 1014.6
20260904153023 62 45 1.0 2.0 0.00 0.02 0.01 89 1014.5
20260904152507 61 0.0 1.0 0.00 0.02 0.01 91 1014.3
20260904152023 61 0.0 1.0 0.00 0.02 0.01 92 1014.4
20260904151504 60 293 1.0 2.0 0.00 0.02 0.01 92 1014.5
20260904151008 59 315 1.0 1.0 0.00 0.02 0.01 94 1014.4
20260904150508 58 0.0 1.0 0.00 0.02 0.01 93 1014.2
20260904150004 57 0.0 2.0 0.00 0.02 0.01 93 1014.2
20260904145508 57 0.0 2.0 0.00 0.02 0.01 93 1014.1
20260904145003 57 0.0 1.0 0.00 0.02 0.01 92 1013.9
20260904144529 57 0.0 2.0 0.00 0.02 0.01 92 1013.9
20260904144023 56 0.0 1.0 0.00 0.02 0.01 92 1013.7
20260904143508 56 0.0 1.0 0.00 0.02 0.01 92 1013.7
20260904143008 56 0.0 1.0 0.00 0.02 0.01 92 1013.6
20260904142508 56 0.0 1.0 0.00 0.02 0.01 92 1013.5
20260904142028 56 0.0 1.0 0.00 0.02 0.01 92 1013.6
20260904141508 56 0.0 1.0 0.00 0.02 0.01 91 1013.6
20260904141024 56 0.0 1.0 0.00 0.02 0.01 91 1013.5
20260904140508 56 0.0 1.0 0.00 0.02 0.01 91 1013.5
20260904140004 56 0.0 1.0 0.00 0.02 0.01 91 1013.5
20260904135508 56 0.0 1.0 0.00 0.02 0.01 91 1013.5
20260904135003 56 0.0 1.0 0.00 0.02 0.01 91 1013.4
20260904134503 56 0.0 1.0 0.00 0.02 0.01 91 1013.4
20260904134004 56 0.0 1.0 0.00 0.02 0.01 91 1013.4
20260904133503 57 0.0 1.0 0.00 0.02 0.01 91 1013.3
20260904133008 57 0.0 1.0 0.00 0.02 0.01 91 1013.4
20260904132508 57 0.0 1.0 0.00 0.02 0.01 91 1013.3
20260904132003 57 0.0 1.0 0.00 0.02 0.01 91 1013.3
20260904131528 57 0.0 1.0 0.00 0.02 0.01 91 1013.3
20260904131008 57 0.0 1.0 0.00 0.02 0.01 91 1013.2
20260904130503 57 0.0 1.0 0.00 0.02 0.01 91 1013.3
20260904130003 58 0.0 0.0 0.00 0.02 0.01 91 1013.2
20260904125503 58 0.0 0.0 0.00 0.02 0.01 91 1013.2
20260904125008 58 0.0 0.0 0.00 0.02 0.01 91 1013.1
20260904124503 58 0.0 0.0 0.00 0.02 0.01 91 1013.2
20260904124008 58 0.0 0.0 0.00 0.02 0.01 91 1013.3
20260904123508 58 0.0 0.0 0.00 0.02 0.01 91 1013.2
20260904123003 58 0.0 1.0 0.00 0.02 0.01 91 1013.2
20260904122503 58 0.0 1.0 0.00 0.02 0.01 91 1013.2
20260904122003 58 0.0 1.0 0.00 0.02 0.01 91 1013.3
20260904121503 58 0.0 1.0 0.00 0.02 0.01 91 1013.3
20260904121008 58 0.0 1.0 0.00 0.02 0.01 91 1013.3
20260904120508 58 0.0 1.0 0.00 0.02 0.01 91 1013.2
20260904120028 59 0.0 1.0 0.00 0.02 0.01 91 1013.2
20260904115503 59 0.0 1.0 0.00 0.02 0.01 91 1013.3
20260904115008 59 0.0 1.0 0.00 0.02 0.01 91 1013.2
20260904114503 59 0.0 1.0 0.00 0.02 0.01 91 1013.2
20260904114008 59 0.0 1.0 0.00 0.02 0.01 91 1013.2
20260904113508 59 0.0 1.0 0.00 0.02 0.01 91 1013.2
20260904113003 59 0.0 1.0 0.00 0.02 0.01 90 1013.0
20260904112510 59 0.0 1.0 0.00 0.02 0.01 91 1013.1
20260904112005 59 0.0 1.0 0.00 0.02 0.01 90 1013.2
20260904111505 59 0.0 1.0 0.00 0.02 0.01 91 1013.3
20260904111008 59 0.0 1.0 0.00 0.02 0.01 91 1013.1
20260904110510 60 0.0 0.0 0.00 0.02 0.01 91 1013.1
20260904110005 60 0.0 1.0 0.00 0.02 0.01 91 1013.1
20260904105505 60 0.0 1.0 0.00 0.02 0.01 91 1013.1
20260904105005 60 0.0 1.0 0.00 0.02 0.01 91 1013.0
20260904104525 60 0.0 1.0 0.00 0.02 0.01 91 1012.9
20260904104005 60 0.0 1.0 0.00 0.02 0.01 91 1013.0
20260904103510 60 0.0 0.0 0.00 0.02 0.01 91 1012.9
20260904103010 60 0.0 1.0 0.00 0.02 0.01 91 1012.9
20260904102525 60 0.0 0.0 0.00 0.02 0.01 91 1012.9
20260904102005 60 0.0 1.0 0.00 0.02 0.01 91 1012.8
20260904101510 61 0.0 1.0 0.00 0.02 0.01 91 1012.9
20260904101005 61 0.0 1.0 0.00 0.02 0.01 91 1012.9
20260904100509 61 0.0 1.0 0.00 0.02 0.01 91 1012.8
20260904100005 61 0.0 1.0 0.00 0.02 0.01 91 1012.9
20260904095505 61 0.0 1.0 0.00 0.02 0.01 91 1012.8
20260904095005 61 0.0 2.0 0.00 0.02 0.01 91 1013.0
20260904094525 61 338 1.0 2.0 0.00 0.02 0.01 91 1012.9
20260904094005 61 338 1.0 2.0 0.00 0.02 0.01 91 1012.8
20260904093505 61 338 1.0 2.0 0.00 0.02 0.01 91 1012.8
20260904093009 61 0 1.0 3.0 0.00 0.02 0.01 91 1012.7
20260904092504 61 0 1.0 2.0 0.00 0.02 0.01 91 1012.7
20260904092010 61 0.0 1.0 0.00 0.02 0.01 91 1012.7
20260904091509 62 0.0 1.0 0.00 0.02 0.01 91 1012.7
20260904091005 62 0.0 1.0 0.00 0.02 0.01 91 1012.7
20260904090505 62 0.0 1.0 0.00 0.02 0.01 91 1012.7
20260904090010 62 0.0 1.0 0.00 0.02 0.01 91 1012.8
20260904085530 62 0.0 1.0 0.00 0.02 0.01 91 1012.7
20260904085024 62 0.0 1.0 0.00 0.02 0.01 91 1012.7
20260904084504 62 0.0 1.0 0.00 0.02 0.01 91 1012.7
20260904084005 62 0.0 1.0 0.00 0.02 0.01 91 1012.6
20260904083504 62 0.0 1.0 0.00 0.02 0.01 91 1012.7
20260904083009 62 0.0 1.0 0.00 0.02 0.01 91 1012.6
20260904082530 62 0.0 1.0 0.00 0.02 0.01 91 1012.6
20260904082025 62 0.0 1.0 0.01 0.02 0.01 90 1012.6
20260904081504 62 0.0 1.0 0.01 0.02 0.01 90 1012.5
20260904081010 62 0.0 1.0 0.01 0.02 0.01 90 1012.5
20260904080524 62 0.0 1.0 0.01 0.02 0.01 90 1012.6
20260904080005 62 0.0 1.0 0.01 0.02 0.01 90 1012.6
20260904075524 62 0.0 1.0 0.01 0.02 0.01 90 1012.6
20260904075009 62 0.0 1.0 0.01 0.02 0.01 90 1012.5
20260904074509 62 0.0 2.0 0.01 0.02 0.01 90 1012.6
20260904074004 62 0.0 1.0 0.01 0.02 0.01 90 1012.5
20260904073504 62 0.0 1.0 0.01 0.02 0.01 90 1012.6
20260904073005 61 0.0 1.0 0.01 0.02 0.01 90 1012.6
20260904072504 61 0.0 1.0 0.01 0.02 0.01 90 1012.5
20260904072004 61 0.0 1.0 0.00 0.01 0.00 90 1012.5
20260904071524 61 0.0 1.0 0.00 0.01 0.00 90 1012.5
20260904071025 61 0.0 1.0 0.00 0.01 0.00 90 1012.6
20260904070504 61 0.0 1.0 0.01 0.01 0.00 90 1012.6
20260904070026 61 0.0 1.0 0.01 0.01 0.01 89 1012.6
20260904065509 61 315 1.0 2.0 0.01 0.01 0.01 89 1012.7
20260904065029 61 0.0 2.0 0.01 0.01 0.01 89 1012.7
20260904064509 62 315 1.0 2.0 0.01 0.01 0.01 89 1012.7
20260904064004 62 315 1.0 2.0 0.01 0.01 0.01 89 1012.7
20260904063504 62 315 1.0 3.0 0.01 0.01 0.01 89 1012.7
20260904063004 62 315 1.0 3.0 0.01 0.01 0.01 89 1012.7
20260904062509 62 315 1.0 4.0 0.01 0.01 0.01 89 1012.7
20260904062005 62 315 1.0 3.0 0.01 0.01 0.01 88 1012.7
20260904061504 62 338 2.0 5.0 0.01 0.01 0.01 88 1012.6
20260904061004 62 315 1.0 5.0 0.01 0.01 0.01 88 1012.6
20260904060504 62 338 2.0 4.0 0.00 0.00 0.00 87 1012.6
20260904060009 62 338 2.0 6.0 0.00 0.00 0.00 87 1012.5
20260904055524 63 0 2.0 6.0 0.00 0.00 0.00 86 1012.4
20260904055024 63 0 2.0 4.0 0.00 0.00 0.00 85 1012.4
20260904054504 64 0 1.0 4.0 0.00 0.00 0.00 85 1012.5
20260904054004 64 338 2.0 6.0 0.00 0.00 0.00 84 1012.5
20260904053504 65 0 2.0 5.0 0.00 0.00 0.00 84 1012.5
20260904053024 65 0 2.0 5.0 0.00 0.00 0.00 83 1012.4
20260904052509 65 338 1.0 3.0 0.00 0.00 0.00 83 1012.4
20260904052009 66 23 2.0 5.0 0.00 0.00 0.00 82 1012.5
20260904051504 66 315 1.0 3.0 0.00 0.00 0.00 81 1012.5
20260904051004 66 23 1.0 3.0 0.00 0.00 0.00 81 1012.5
20260904050504 67 315 1.0 4.0 0.00 0.00 0.00 81 1012.5
20260904050004 67 338 1.0 3.0 0.00 0.00 0.00 81 1012.6
20260904045504 68 0 1.0 4.0 0.00 0.00 0.00 80 1012.5
20260904045004 68 0 1.0 3.0 0.00 0.00 0.00 80 1012.5
20260904044504 68 338 1.0 3.0 0.00 0.00 0.00 79 1012.6
20260904044004 68 0.0 2.0 0.00 0.00 0.00 79 1012.5
20260904043524 68 338 1.0 2.0 0.00 0.00 0.00 79 1012.6
20260904043009 68 315 1.0 2.0 0.00 0.00 0.00 79 1012.5
20260904042509 68 315 1.0 3.0 0.00 0.00 0.00 79 1012.5
20260904042004 68 315 1.0 4.0 0.00 0.00 0.00 78 1012.5
20260904041504 68 315 1.0 3.0 0.00 0.00 0.00 78 1012.4
20260904041004 68 315 1.0 3.0 0.00 0.00 0.00 78 1012.3
20260904040504 68 293 1.0 3.0 0.00 0.00 0.00 78 1012.4
20260904040004 68 315 1.0 3.0 0.00 0.00 0.00 78 1012.3
20260904035509 68 315 1.0 4.0 0.00 0.00 0.00 78 1012.3
20260904035009 68 315 1.0 4.0 0.00 0.00 0.00 78 1012.2
20260904034504 68 315 1.0 3.0 0.00 0.00 0.00 77 1012.1
20260904034004 68 315 1.0 4.0 0.00 0.00 0.00 77 1012.2
20260904033504 68 225 1.0 3.0 0.00 0.00 0.00 77 1012.1
20260904033004 68 248 1.0 4.0 0.00 0.00 0.00 77 1012.1
20260904032504 68 315 1.0 4.0 0.00 0.00 0.00 78 1012.0
20260904032004 68 248 1.0 4.0 0.00 0.00 0.00 77 1012.0
20260904031504 68 315 1.0 4.0 0.00 0.00 0.00 77 1012.0
20260904031005 68 248 1.0 4.0 0.00 0.00 0.00 77 1011.9
20260904030504 69 315 1.0 3.0 0.00 0.00 0.00 77 1011.9
20260904030004 69 293 1.0 3.0 0.00 0.00 0.00 77 1011.9
20260904025504 69 315 1.0 4.0 0.00 0.00 0.00 77 1011.9
20260904025004 69 338 1.0 4.0 0.00 0.00 0.00 77 1011.9
20260904024508 69 0.0 2.0 0.00 0.00 0.00 76 1012.0
20260904024004 69 248 1.0 5.0 0.00 0.00 0.00 76 1011.9
20260904023504 69 248 1.0 2.0 0.00 0.00 0.00 75 1011.9
20260904023004 70 315 1.0 4.0 0.00 0.00 0.00 75 1011.9
20260904022504 70 225 1.0 3.0 0.00 0.00 0.00 74 1011.9
20260904022004 70 248 1.0 3.0 0.00 0.00 0.00 74 1012.1
20260904021507 70 225 1.0 4.0 0.00 0.00 0.00 73 1012.1
20260904021008 70 315 1.0 3.0 0.00 0.00 0.00 73 1012.1
20260904020509 71 225 1.0 4.0 0.00 0.00 0.00 72 1012.1
20260904020003 71 225 2.0 5.0 0.00 0.00 0.00 72 1012.2
20260904015509 71 225 2.0 9.0 0.00 0.00 0.00 72 1012.1
20260904015024 71 315 1.0 4.0 0.00 0.00 0.00 72 1012.0
20260904014508 71 315 2.0 5.0 0.00 0.00 0.00 72 1012.0
20260904014009 71 338 1.0 5.0 0.00 0.00 0.00 72 1012.0
20260904013503 71 225 1.0 4.0 0.00 0.00 0.00 71 1012.0
20260904013004 71 338 2.0 10.0 0.00 0.00 0.00 71 1012.1
20260904012508 71 315 1.0 7.0 0.00 0.00 0.00 70 1012.1
20260904012004 71 315 2.0 8.0 0.00 0.00 0.00 70 1011.9
20260904011504 71 248 2.0 8.0 0.00 0.00 0.00 70 1012.1
20260904011003 71 270 2.0 10.0 0.00 0.00 0.00 69 1012.1
20260904010509 71 225 2.0 8.0 0.00 0.00 0.00 68 1012.1
20260904010009 72 315 2.0 8.0 0.00 0.00 0.00 68 1012.1
20260904005509 72 293 1.0 6.0 0.00 0.00 0.00 68 1012.2
20260904005029 72 315 2.0 6.0 0.00 0.00 0.00 67 1012.0
20260904004503 72 248 2.0 7.0 0.00 0.00 0.00 67 1012.1
20260904004009 72 315 2.0 5.0 0.00 0.00 0.00 66 1012.1
20260904003504 72 315 3.0 7.0 0.00 0.00 0.00 66 1012.1
20260904003008 72 315 2.0 8.0 0.00 0.00 0.00 65 1012.2
20260904002503 73 315 3.0 9.0 0.00 0.00 0.00 64 1012.1
20260904002028 73 248 2.0 8.0 0.00 0.00 0.00 64 1012.1
20260904001508 73 225 2.0 7.0 0.00 0.00 0.00 63 1012.2
20260904001008 73 225 2.0 7.0 0.00 0.00 0.00 62 1012.1
20260904000508 73 315 2.0 5.0 0.00 0.00 0.00 62 1012.2
20260904000003 74 315 2.0 5.0 0.00 0.00 0.00 62 1012.2
20260903235624 74 315 3.0 7.0 0.00 0.00 0.00 61 1012.1
20260903235004 74 315 2.0 6.0 0.00 0.00 0.00 61 1012.3
20260903234508 74 315 3.0 7.0 0.00 0.00 0.00 61 1012.1
20260903234026 75 315 2.0 7.0 0.00 0.00 0.00 60 1012.3
20260903233508 75 315 2.0 7.0 0.00 0.00 0.00 60 1012.1
20260903233008 75 315 1.0 5.0 0.00 0.00 0.00 60 1012.2
20260903232503 75 248 2.0 9.0 0.00 0.00 0.00 60 1012.2
20260903232028 76 248 3.0 8.0 0.00 0.00 0.00 59 1012.4
20260903231528 76 315 2.0 8.0 0.00 0.00 0.00 59 1012.4
20260903231008 76 315 3.0 8.0 0.00 0.00 0.00 58 1012.4
20260903230508 77 248 2.0 9.0 0.00 0.00 0.00 58 1012.4
20260903230008 77 315 3.0 9.0 0.00 0.00 0.00 57 1012.5
20260903225523 77 315 3.0 9.0 0.00 0.00 0.00 57 1012.5
20260903225008 78 315 2.0 7.0 0.00 0.00 0.00 55 1012.6
20260903224508 79 315 3.0 10.0 0.00 0.00 0.00 54 1012.5
20260903224008 80 270 2.0 7.0 0.00 0.00 0.00 54 1012.6
20260903223528 80 248 3.0 7.0 0.00 0.00 0.00 53 1012.5
20260903223028 80 315 3.0 7.0 0.00 0.00 0.00 53 1012.7
20260903222528 80 315 2.0 8.0 0.00 0.00 0.00 54 1012.8
20260903222008 80 315 3.0 9.0 0.00 0.00 0.00 53 1012.9
20260903221508 80 270 2.0 6.0 0.00 0.00 0.00 53 1012.9
20260903221028 80 248 2.0 7.0 0.00 0.00 0.00 54 1013.0
20260903220508 79 315 3.0 8.0 0.00 0.00 0.00 54 1013.3
20260903220023 78 315 2.0 6.0 0.00 0.00 0.00 56 1013.3
20260903215508 78 315 2.0 4.0 0.00 0.00 0.00 56 1013.3
20260903215008 77 248 2.0 6.0 0.00 0.00 0.00 57 1013.4
20260903214508 77 315 2.0 5.0 0.00 0.00 0.00 57 1013.4
20260903214006 77 315 2.0 5.0 0.00 0.00 0.00 57 1013.4
20260903213503 77 315 2.0 7.0 0.00 0.00 0.00 57 1013.5
20260903213003 77 270 1.0 3.0 0.00 0.00 0.00 57 1013.5
20260903212508 77 315 1.0 4.0 0.00 0.00 0.00 57 1013.5
20260903212008 77 315 1.0 3.0 0.00 0.00 0.00 57 1013.3
20260903211503 76 0 1.0 3.0 0.00 0.00 0.00 58 1013.4
20260903211008 76 0 1.0 4.0 0.00 0.00 0.00 59 1013.4
20260903210503 76 45 1.0 4.0 0.00 0.00 0.00 60 1013.4
20260903210010 76 23 2.0 5.0 0.00 0.00 0.00 60 1013.4
20260903205530 76 45 2.0 6.0 0.00 0.00 0.00 60 1013.4
20260903205025 76 23 2.0 5.0 0.00 0.00 0.00 60 1013.6
20260903204505 75 45 2.0 5.0 0.00 0.00 0.00 60 1013.6
20260903204025 75 45 2.0 5.0 0.00 0.00 0.00 61 1013.7
20260903203505 75 45 2.0 6.0 0.00 0.00 0.00 61 1013.6
20260903203010 75 23 2.0 4.0 0.00 0.00 0.00 60 1013.7
20260903202505 75 23 1.0 3.0 0.00 0.00 0.00 61 1013.7
20260903202010 75 45 2.0 3.0 0.00 0.00 0.00 61 1013.8
20260903201505 75 45 2.0 3.0 0.00 0.00 0.00 61 1013.9
20260903201009 75 45 2.0 4.0 0.00 0.00 0.00 60 1013.9
20260903200505 75 45 2.0 4.0 0.00 0.00 0.00 60 1014.0
20260903200008 75 45 2.0 4.0 0.00 0.00 0.00 59 1014.1
20260903195550 76 45 2.0 5.0 0.00 0.00 0.00 57 1014.0
20260903195005 77 45 2.0 4.0 0.00 0.00 0.00 56 1014.1
20260903194505 77 45 2.0 6.0 0.00 0.00 0.00 56 1014.0
20260903194010 77 45 2.0 4.0 0.00 0.00 0.00 57 1014.2
20260903193525 76 45 2.0 5.0 0.00 0.00 0.00 58 1014.2
20260903193005 76 45 2.0 4.0 0.00 0.00 0.00 57 1014.4
20260903192530 76 23 2.0 6.0 0.00 0.00 0.00 57 1014.5
20260903192005 76 23 1.0 5.0 0.00 0.00 0.00 57 1014.5
20260903191505 76 338 2.0 4.0 0.00 0.00 0.00 57 1014.4
20260903191005 76 45 1.0 3.0 0.00 0.00 0.00 57 1014.6
20260903190509 77 315 2.0 6.0 0.00 0.00 0.00 56 1014.6
20260903190025 77 315 2.0 5.0 0.00 0.00 0.00 56 1014.6